Other Public Products
Issued by NWS Grand Forks, ND

Home | Current Version | Previous Version | Graphics & Text | Print | Product List | Glossary On
Versions: 1 2 3 4 5 6 7 8 9 10 11 12 13 14 15 16 17 18 19 20 21 22 23 24 25 26 27 28 29 30 31 32 33 34 35 36 37 38 39 40 41 42 43 44 45 46 47 48 49 50
000
FPUS83 KFGF 040931
OPUFGF
PRAIRIE TO PINES WEATHER ROUNDUP
NATIONAL WEATHER SERVICE EASTERN NORTH DAKOTA/GRAND FORKS ND
400 AM CDT FRI SEP 04 2015

 **SATELLITE DATA USED TO AUGMENT SKY COVER AT AUTOMATED STATIONS**
 *****  WEATHER ACROSS EASTERN NORTH DAKOTA  *****

CITY           SKY/WX    TMP DP  RH WIND       PRES   REMARKS
GRAND FORKS    PTCLDY    73  71  93 SE10      29.77S
GRAND FORKS AF CLOUDY    75  73  94 S10       29.78R
GRAND CITY NWS   N/A     72 N/A N/A SE12        N/A
BUXTON         NOT AVBL
DEVILS LAKE    CLOUDY    75  66  73 S7        29.75R
FARGO          CLEAR     76  72  87 SE13      29.77S
WAHPETON ARPT  SUNNY     73  70  88 SE10      29.79S
$$

 *****  WEATHER ACROSS CENTRAL AND WESTERN NORTH DAKOTA  *****

CITY           SKY/WX    TMP DP  RH WIND       PRES   REMARKS
JAMESTOWN      MOCLDY    73  71  93 SE10      29.75R
BISMARCK         N/A     74  71  91 SE12      29.71S
MINOT          MOCLDY    67  62  84 NW15G23   29.75R
MINOT AFB      CLOUDY    68  67  98 NW17      29.74R
GARRISON         N/A     67  64  90 NW12      29.74R
WILLISTON      CLOUDY    65  43  44 NE12G22   29.82S
DICKINSON      CLOUDY    68  64  87 N14       29.76R
HETTINGER      CLOUDY    70  57  63 CALM      29.73R
$$

 *****  OTHER OBSERVATIONS NORTHEAST NORTH DAKOTA  *****

CITY           SKY/WX    TMP DP  RH WIND       PRES   REMARKS
WALHALLA       FAIR      77  77 100 MISG      29.76R
LANGDON        PTSUNNY   73  73 100 S9        29.79R
CAVALIER       CLOUDY    75  73  94 SE10G16   29.76R
GRAFTON        CLOUDY    75  75 100 SE10      29.78R
CANDO          FAIR      72  70  94 SE8       29.76S
FORT TOTTEN      N/A     74  73  95 S3        29.95S
ROLLA          FAIR      72  70  94 S10       29.76S
RUGBY          FAIR      75  70  83 S3        29.72S
 ***** THE ABOVE OBSERVATIONS ARE NON NWS ARE NOT QUALITY
        CONTROLLED AND MAY MIS-REPORT RAIN FOR SNOW...
$$

 *****  OTHER OBSERVATIONS SOUTHEAST NORTH DAKOTA *****

CITY           SKY/WX    TMP DP  RH WIND       PRES   REMARKS
COOPERSTOWN    NOT AVBL
VALLEY CITY    CLOUDY    75  75 100 SE9G16    29.77S
OAKES            N/A     72  72 100 E9        29.74F
GWINNER        CLOUDY    75  75 100 SE13      29.76S
SHEYENNE NWR     N/A     76  74  93 SE7       29.95S
BUFFALO        NOT AVBL
WYNDMERE         N/A     73  73 100 SE7         N/A
 ***** THE ABOVE OBSERVATIONS ARE NON NWS ARE NOT QUALITY
       CONTROLLED AND MAY MIS-REPORT RAIN FOR SNOW...
$$

  *****  WEATHER ACROSS NORTHERN MINNESOTA  *****

CITY           SKY/WX    TMP DP  RH WIND       PRES   REMARKS
FLAG ISLAND    MOCLDY    70  64  83 S17       29.87R
WARROAD        MOCLDY    70  66  88 S6        29.86S
ROSEAU         MOCLDY    70  64  83 SE6       29.85R
HALLOCK        PTCLDY    73  72  94 SE10      29.78S
THF RVR FALLS  MOCLDY    70  70 100 SE8       29.83S
HALSTAD        NOT AVBL
FOSSTON        MOCLDY    72  66  83 SE7       29.85S
BAUDETTE       MOCLDY    66  61  84 SE10      29.88S
WASKISH        MOCLDY    64  61  88 E5        29.90S
CROOKSTON      PTCLDY    73  72  94 SE10      29.81R
$$
  *****  WEATHER ACROSS CENTRAL AND WEST MINNESOTA  *****

CITY           SKY/WX    TMP DP  RH WIND       PRES   REMARKS
BEMIDJI        CLOUDY    67  64  88 SE9G16    29.89S
PARK RAPIDS    MOCLDY    69  65  86 SE6       29.89R
WADENA         CLOUDY    70  66  88 SE9       29.87S
DETROIT LAKES  CLOUDY    72  68  88 SE16      29.85S
MOORHEAD       CLEAR     73  72  94 SE8       29.78S
FERGUS FALLS   CLEAR     73  73 100 SE13      29.80S
ELBOW LAKE     FAIR      73  72  96 SE10      29.81S
MORRIS MN      PTCLDY    73  73 100 SE12      29.81S FOG
STAPLES        CLOUDY    68  66  94 E5        29.89R
WHEATON        PTCLDY    72  70  94 SE10      29.79F
$$
  *****  WEATHER ELSEWHERE ACROSS MINNESOTA  *****

CITY           SKY/WX    TMP DP  RH WIND       PRES   REMARKS
DULUTH         CLEAR     56  54  93 E5        30.00S
INTRNTL FALLS  PTCLDY    56  53  90 SE6       29.94S
ELY            CLEAR     50  48  93 CALM      30.01S
CLOQUET        MOCLDY    57  55  94 E3        29.98F
BRAINERD       PTCLDY    67  65  93 VRB7      29.91S
HIBBING        CLEAR     55  52  89 SE5       29.98F
ALEXANDRIA     CLOUDY    72  71  97 SE12      29.87S
SAINT CLOUD    CLEAR     70  68  93 E8        29.89S
MINNEAPOLIS    CLEAR     72  68  87 SE13      29.91S
$$

  *****  WEATHER ACROSS SOUTH DAKOTA  *****

CITY           SKY/WX    TMP DP  RH WIND       PRES   REMARKS
SIOUX FALLS    CLEAR     75  68  78 S12       29.81R
BROOKINGS      PTCLDY    73  68  83 SE14      29.82S
WATERTOWN      PTCLDY    74  70  87 SE9       29.78F
HURON          PTCLDY    75  70  84 SE13      29.71S
SISSETON         N/A     75  73  93 S10       29.76F
ABERDEEN       PTCLDY    74  70  87 E8        29.71F
MITCHELL       PTCLDY    75  69  81 S12       29.74R
PIERRE         CLOUDY    71  69  93 S3        29.68R
MOBRIDGE       CLOUDY    73  72  96 E9        29.67F
RAPID CITY     CLOUDY    69  52  54 SE6       29.78S
$$

  *****  SOME WEATHER IN NEARBY STATES *****

CITY           SKY/WX    TMP DP  RH WIND       PRES   REMARKS
GLASGOW MT     PTCLDY    59  39  47 NE24G33   29.83R
GREAT FALLS MT LGT RAIN  49  47  93 E16       29.99F
CHEYENNE WY    CLEAR     53  43  68 W10       30.00F
SCOTTSBLUFF NE CLEAR     59  55  87 N3        29.88R
OMAHA NE       MOCLDY    75  68  78 S13       29.86F
DES MOINES IA  PTCLDY    73  67  81 S7        29.92S
DAVENPORT IA   CLEAR     69  67  93 CALM      29.96R
CHICAGO IL     CLEAR     69  66  90 N5        29.97S
EAU CLAIRE WI  CLOUDY    70  64  81 E7        29.98R
LA CROSSE WI   MOCLDY    70  66  87 SE6       29.97S
$$

  *****  SOME NATIONAL WEATHER *****

CITY           SKY/WX    TMP DP  RH WIND       PRES   REMARKS
LA GUARDIA NY  PTCLDY    77  66  68 NE5       29.92S
RALEIGH NC     PTCLDY    69  67  93 CALM      29.94S FOG
ATLANTA GA     MOCLDY    71  67  87 NW5       29.98S
NEW ORLEANS LA MOCLDY    77  73  87 CALM      29.94S
OKLAHOMA CITY  PTCLDY    70  65  84 SE8       29.92S
ALBUQUERQUE NM PTCLDY    71  49  45 S5        30.07F
SALT LAKE CITY PTCLDY    75  36  24 S15       29.81R
LOS ANGELES CA CLOUDY    68  57  68 CALM      29.86S
BOISE ID       CLOUDY    55  43  63 W6        29.85S
SEATTLE WA     PTCLDY    51  47  86 NW3       30.00S
$$

*** WEATHER ACROSS MANITOBA...SASKATCHEWAN AND ONTARIO ***
                ***ONTARIO***

CITY           SKY/WX    TMP DP  RH WIND       PRES   REMARKS
GERALDTON      CLEAR     54  54 100 CALM      30.08S
THUNDER BAY    CLEAR     52  52 100 NW2       30.06R
SIOUX LOOKOUT  PTCLDY    63  54  72 S8        29.97
TORONTO        MOCLDY    72  68  88 E9        30.03R
BIG TROUT LK   MOCLDY    66  57  72 S6        29.87R
PICKLE LAKE    NOT AVBL
DRYDEN         CLEAR     64  54  68 S13G18    29.95S
KENORA         PTCLDY    66  61  82 S10       29.91R
$$
                *** MANITOBA***

CITY           SKY/WX    TMP DP  RH WIND       PRES   REMARKS
BRANDON        LGT RAIN  68  66  94 NE12G17   29.77R
DAUPHIN        LGT RAIN  61  55  82 N6        29.85F
ISLAND LAKE    CLOUDY    66  66 100 CALM      29.79S
PILOT MOUND      N/A     75  72  88 S12         N/A
THE PAS        MOCLDY    57  46  67 NW13      29.94R
THOMPSON       PTCLDY    50  46  87 NW7       29.87R
WINNIPEG       CLOUDY    77  73  88 S10       29.79R
LYNN LAKE      CLEAR     48  45  87 W9        29.85R
CHURCHILL      CLOUDY    50  48  93 S3        29.78R FOG
$$
                ***SASKATCHEWAN***

CITY           SKY/WX    TMP DP  RH WIND       PRES   REMARKS
ESTEVAN        CLOUDY    63  46  55 N16       29.84S
KINDERSLEY     CLOUDY    50  41  71 N7        30.03S
LLOYDMINSTER   PTCLDY    39  37  93 N6        30.05R
PRINCE ALBERT  MOCLDY    46  45  93 VRB2      30.03
REGINA         CLOUDY    54  46  76 N12G17    29.93R
YORKTON        PTCLDY    55  48  76 N13       29.93F



USA.gov is the U.S. government's official web portal to all federal, state and local government web resources and services.